SKW5691 KLAX-KMRY

Flight info

Callsign SKW5691
Flight time 0h 52m
Altitude 26000
Route SUMMR2 SCTRR SNS
Aircraft E175/M-SDE3GILORVW/S

Departure

Time 2026-04-25 04:30
Airport Los Angeles International Airport (KLAX)

Arrival

Time 2026-04-25 05:22
Airport Monterey Regional Airport (KMRY)
Time Latitude Longitude Altitude Speed Heading
2026-04-25 04:02 33.94150 -118.40635 91 ft 0 kts 262°
2026-04-25 04:20 33.94152 -118.40619 92 ft 3 kts 262°
2026-04-25 04:20 33.94154 -118.40597 90 ft 2 kts 262°
2026-04-25 04:21 33.94165 -118.40582 91 ft 3 kts 181°
2026-04-25 04:21 33.94168 -118.40583 90 ft 0 kts 176°
2026-04-25 04:23 33.94155 -118.40582 90 ft 0 kts 176°
2026-04-25 04:23 33.94153 -118.40582 90 ft 0 kts 176°
2026-04-25 04:23 33.94144 -118.40581 90 ft 6 kts 174°
2026-04-25 04:23 33.94063 -118.40565 91 ft 15 kts 171°
2026-04-25 04:24 33.93946 -118.40544 91 ft 18 kts 172°
2026-04-25 04:24 33.93835 -118.40490 92 ft 18 kts 106°
2026-04-25 04:24 33.93845 -118.40334 93 ft 20 kts 83°
2026-04-25 04:24 33.93858 -118.40200 94 ft 13 kts 84°
2026-04-25 04:25 33.93870 -118.40080 96 ft 16 kts 82°
2026-04-25 04:25 33.93885 -118.39939 95 ft 18 kts 83°
2026-04-25 04:25 33.93897 -118.39807 95 ft 13 kts 83°
2026-04-25 04:25 33.93910 -118.39685 94 ft 16 kts 82°
2026-04-25 04:26 33.93927 -118.39539 95 ft 19 kts 83°
2026-04-25 04:26 33.93943 -118.39368 91 ft 22 kts 84°
2026-04-25 04:26 33.93962 -118.39173 91 ft 24 kts 84°
2026-04-25 04:26 33.93984 -118.38965 93 ft 26 kts 83°
2026-04-25 04:27 33.94003 -118.38740 92 ft 27 kts 81°
2026-04-25 04:27 33.94027 -118.38545 95 ft 22 kts 83°
2026-04-25 04:27 33.94044 -118.38354 94 ft 24 kts 84°
2026-04-25 04:27 33.94071 -118.38153 93 ft 22 kts 81°
2026-04-25 04:28 33.94073 -118.38026 91 ft 6 kts 135°
2026-04-25 04:28 33.94062 -118.38017 93 ft 6 kts 146°
2026-04-25 04:28 33.94016 -118.38005 93 ft 8 kts 197°
2026-04-25 04:28 33.93980 -118.38067 92 ft 10 kts 262°
2026-04-25 04:29 33.93976 -118.38100 92 ft 0 kts 262°
2026-04-25 04:29 33.93975 -118.38108 92 ft 2 kts 262°
2026-04-25 04:29 33.93970 -118.38154 92 ft 21 kts 262°
2026-04-25 04:29 33.93911 -118.38727 96 ft 116 kts 263°
2026-04-25 04:30 33.93764 -118.40012 283 ft 182 kts 260°
2026-04-25 04:30 33.93553 -118.41545 1169 ft 189 kts 261°
2026-04-25 04:30 33.93395 -118.43225 1934 ft 206 kts 266°
2026-04-25 04:30 33.93251 -118.44908 3215 ft 199 kts 264°
2026-04-25 04:31 33.93114 -118.46564 4244 ft 205 kts 265°
2026-04-25 04:31 33.92976 -118.48378 4885 ft 228 kts 264°
2026-04-25 04:31 33.92810 -118.50400 5490 ft 259 kts 264°
2026-04-25 04:31 33.92625 -118.52604 6065 ft 253 kts 264°
2026-04-25 04:32 33.92459 -118.54616 6604 ft 249 kts 264°
2026-04-25 04:32 33.92278 -118.56787 7198 ft 265 kts 264°
2026-04-25 04:32 33.92092 -118.59021 7805 ft 271 kts 264°
2026-04-25 04:32 33.91902 -118.61276 8415 ft 271 kts 264°
2026-04-25 04:33 33.91790 -118.63538 9032 ft 271 kts 268°
2026-04-25 04:33 33.91766 -118.65788 9652 ft 272 kts 269°
2026-04-25 04:33 33.91756 -118.68074 10235 ft 274 kts 269°
2026-04-25 04:33 33.91750 -118.70365 10807 ft 274 kts 269°
2026-04-25 04:34 33.91741 -118.72769 11440 ft 303 kts 269°
2026-04-25 04:34 33.91731 -118.75304 12058 ft 301 kts 269°
2026-04-25 04:34 33.91720 -118.77854 12762 ft 307 kts 269°
2026-04-25 04:34 33.91666 -118.80446 13506 ft 312 kts 268°
2026-04-25 04:35 33.91696 -118.83082 14193 ft 318 kts 271°
2026-04-25 04:35 33.91768 -118.85772 14859 ft 324 kts 271°
2026-04-25 04:35 33.91850 -118.88512 15539 ft 330 kts 271°
2026-04-25 04:35 33.91934 -118.91294 16235 ft 335 kts 271°
2026-04-25 04:36 33.92017 -118.94109 16942 ft 337 kts 271°
2026-04-25 04:36 33.92114 -118.96930 17652 ft 338 kts 274°
2026-04-25 04:36 33.92608 -118.99719 18360 ft 344 kts 284°
2026-04-25 04:36 33.93421 -119.02444 19002 ft 348 kts 289°
2026-04-25 04:37 33.94369 -119.05135 19613 ft 354 kts 291°
2026-04-25 04:37 33.95477 -119.07828 20102 ft 365 kts 297°
2026-04-25 04:37 33.96972 -119.10347 20585 ft 379 kts 310°
2026-04-25 04:37 33.99069 -119.12358 21097 ft 391 kts 319°
2026-04-25 04:38 34.01323 -119.14218 21607 ft 393 kts 321°
2026-04-25 04:38 34.03611 -119.16032 22148 ft 394 kts 321°
2026-04-25 04:38 34.05883 -119.17847 22664 ft 392 kts 319°
2026-04-25 04:38 34.08027 -119.19828 23190 ft 395 kts 317°
2026-04-25 04:39 34.10229 -119.21901 23693 ft 398 kts 316°
2026-04-25 04:39 34.12389 -119.23961 24084 ft 403 kts 316°
2026-04-25 04:39 34.14598 -119.26074 24495 ft 407 kts 316°
2026-04-25 04:39 34.16828 -119.28207 24915 ft 411 kts 316°
2026-04-25 04:40 34.19082 -119.30362 25343 ft 415 kts 316°
2026-04-25 04:40 34.21354 -119.32538 25749 ft 419 kts 316°
2026-04-25 04:40 34.23664 -119.34752 25889 ft 425 kts 316°
2026-04-25 04:40 34.25981 -119.36968 25927 ft 423 kts 316°
2026-04-25 04:41 34.28284 -119.39175 25936 ft 422 kts 316°
2026-04-25 04:41 34.30583 -119.41383 25944 ft 422 kts 316°
2026-04-25 04:41 34.32888 -119.43594 25941 ft 423 kts 316°
2026-04-25 04:41 34.35191 -119.45807 25932 ft 422 kts 316°
2026-04-25 04:42 34.37490 -119.48017 25926 ft 422 kts 316°
2026-04-25 04:42 34.39791 -119.50231 25929 ft 422 kts 316°
2026-04-25 04:42 34.42053 -119.52407 25928 ft 421 kts 316°
2026-04-25 04:42 34.44373 -119.54645 25919 ft 423 kts 316°
2026-04-25 04:43 34.46644 -119.56833 25948 ft 423 kts 316°
2026-04-25 04:43 34.48945 -119.59055 25905 ft 423 kts 316°
2026-04-25 04:43 34.51250 -119.61276 25911 ft 422 kts 316°
2026-04-25 04:43 34.53546 -119.63494 25921 ft 423 kts 316°
2026-04-25 04:44 34.55846 -119.65717 25904 ft 422 kts 316°
2026-04-25 04:44 34.58143 -119.67944 25906 ft 423 kts 316°
2026-04-25 04:44 34.60449 -119.70173 25925 ft 422 kts 316°
2026-04-25 04:44 34.62747 -119.72398 25927 ft 423 kts 316°
2026-04-25 04:45 34.65041 -119.74624 25922 ft 423 kts 316°
2026-04-25 04:45 34.67337 -119.76851 25929 ft 422 kts 316°
2026-04-25 04:45 34.69631 -119.79082 25929 ft 422 kts 316°
2026-04-25 04:45 34.71928 -119.81313 25916 ft 422 kts 316°
2026-04-25 04:46 34.74224 -119.83544 25927 ft 425 kts 316°
2026-04-25 04:46 34.76526 -119.85784 25951 ft 421 kts 315°
2026-04-25 04:46 34.78814 -119.88014 25939 ft 421 kts 315°
2026-04-25 04:46 34.81102 -119.90245 25932 ft 423 kts 315°
2026-04-25 04:47 34.83401 -119.92484 25912 ft 423 kts 316°
2026-04-25 04:47 34.85694 -119.94720 25959 ft 421 kts 315°
2026-04-25 04:47 34.87976 -119.96951 25950 ft 421 kts 315°
2026-04-25 04:47 34.90260 -119.99188 25949 ft 422 kts 315°
2026-04-25 04:48 34.92545 -120.01420 26002 ft 421 kts 315°
2026-04-25 04:48 34.94797 -120.03628 26006 ft 418 kts 315°
2026-04-25 04:48 34.97075 -120.05852 26051 ft 418 kts 315°
2026-04-25 04:48 34.99343 -120.08086 26034 ft 420 kts 315°
2026-04-25 04:49 35.01622 -120.10315 26040 ft 420 kts 315°
2026-04-25 04:49 35.03899 -120.12554 26006 ft 422 kts 315°
2026-04-25 04:49 35.06188 -120.14800 25991 ft 421 kts 315°
2026-04-25 04:49 35.08468 -120.17043 25987 ft 421 kts 315°
2026-04-25 04:50 35.10747 -120.19286 25996 ft 421 kts 315°
2026-04-25 04:50 35.13022 -120.21524 25982 ft 419 kts 315°
2026-04-25 04:50 35.15287 -120.23760 25972 ft 419 kts 315°
2026-04-25 04:50 35.17574 -120.25978 25975 ft 421 kts 317°
2026-04-25 04:51 35.19918 -120.28121 25987 ft 420 kts 317°
2026-04-25 04:51 35.22230 -120.30240 25997 ft 420 kts 317°
2026-04-25 04:51 35.24573 -120.32382 25997 ft 421 kts 317°
2026-04-25 04:51 35.26920 -120.34528 25980 ft 421 kts 317°
2026-04-25 04:52 35.29259 -120.36668 26003 ft 417 kts 317°
2026-04-25 04:52 35.31583 -120.38799 25986 ft 417 kts 317°
2026-04-25 04:52 35.33908 -120.40932 25980 ft 421 kts 317°
2026-04-25 04:52 35.36278 -120.43046 25990 ft 422 kts 319°
2026-04-25 04:53 35.38667 -120.45137 25992 ft 421 kts 318°
2026-04-25 04:53 35.41039 -120.47236 25983 ft 421 kts 318°
2026-04-25 04:53 35.43418 -120.49341 25976 ft 421 kts 318°
2026-04-25 04:53 35.45795 -120.51446 26008 ft 421 kts 318°
2026-04-25 04:54 35.48154 -120.53536 25999 ft 418 kts 318°
2026-04-25 04:54 35.50510 -120.55625 25984 ft 417 kts 318°
2026-04-25 04:54 35.52860 -120.57712 25990 ft 416 kts 318°
2026-04-25 04:54 35.55179 -120.59771 26004 ft 417 kts 318°
2026-04-25 04:55 35.57466 -120.61935 25995 ft 412 kts 312°
2026-04-25 04:55 35.59623 -120.64261 26001 ft 416 kts 317°
2026-04-25 04:55 35.62028 -120.66265 26006 ft 419 kts 321°
2026-04-25 04:55 35.64488 -120.68183 26020 ft 418 kts 320°
2026-04-25 04:56 35.66856 -120.70245 26008 ft 416 kts 318°
2026-04-25 04:56 35.69197 -120.72307 25993 ft 409 kts 318°
2026-04-25 04:56 35.71448 -120.74311 25980 ft 391 kts 317°
2026-04-25 04:56 35.73637 -120.76276 25986 ft 389 kts 317°
2026-04-25 04:57 35.75639 -120.78477 25798 ft 383 kts 307°
2026-04-25 04:57 35.77295 -120.80997 25497 ft 374 kts 302°
2026-04-25 04:57 35.78813 -120.83552 25156 ft 367 kts 301°
2026-04-25 04:57 35.80288 -120.86113 24829 ft 366 kts 301°
2026-04-25 04:58 35.81845 -120.88598 24483 ft 369 kts 307°
2026-04-25 04:58 35.83610 -120.90845 24177 ft 368 kts 308°
2026-04-25 04:58 35.85346 -120.93156 23863 ft 367 kts 308°
2026-04-25 04:58 35.87058 -120.95457 23542 ft 360 kts 307°
2026-04-25 04:59 35.88746 -120.97732 23169 ft 360 kts 307°
2026-04-25 04:59 35.90436 -121.00003 22799 ft 359 kts 307°
2026-04-25 04:59 35.92122 -121.02275 22426 ft 358 kts 307°
2026-04-25 04:59 35.93795 -121.04540 22072 ft 357 kts 307°
2026-04-25 05:00 35.95466 -121.06810 21738 ft 360 kts 308°
2026-04-25 05:00 35.97136 -121.09093 21388 ft 357 kts 307°
2026-04-25 05:00 35.98788 -121.11364 21039 ft 354 kts 307°
2026-04-25 05:00 36.00426 -121.13634 20696 ft 354 kts 307°
2026-04-25 05:01 36.02059 -121.15908 20326 ft 353 kts 307°
2026-04-25 05:01 36.03684 -121.18187 19861 ft 352 kts 307°
2026-04-25 05:01 36.05293 -121.20462 19387 ft 351 kts 308°
2026-04-25 05:01 36.06888 -121.22736 18923 ft 349 kts 308°
2026-04-25 05:02 36.08469 -121.25006 18469 ft 349 kts 308°
2026-04-25 05:02 36.10038 -121.27283 18029 ft 347 kts 307°
2026-04-25 05:02 36.11605 -121.29573 17657 ft 352 kts 307°
2026-04-25 05:02 36.13200 -121.31926 17288 ft 360 kts 307°
2026-04-25 05:03 36.14799 -121.34294 16898 ft 358 kts 307°
2026-04-25 05:03 36.16389 -121.36681 16675 ft 358 kts 307°
2026-04-25 05:03 36.17965 -121.39049 16272 ft 356 kts 307°
2026-04-25 05:03 36.19517 -121.41371 15907 ft 355 kts 307°
2026-04-25 05:04 36.21090 -121.43720 15540 ft 354 kts 307°
2026-04-25 05:04 36.22643 -121.46077 14917 ft 355 kts 307°
2026-04-25 05:04 36.24174 -121.48440 14493 ft 349 kts 306°
2026-04-25 05:04 36.25659 -121.50799 14118 ft 344 kts 306°
2026-04-25 05:05 36.27058 -121.53151 13730 ft 335 kts 303°
2026-04-25 05:05 36.28382 -121.55518 13304 ft 333 kts 303°
2026-04-25 05:05 36.29677 -121.57890 12903 ft 332 kts 302°
2026-04-25 05:05 36.30945 -121.60228 12502 ft 322 kts 302°
2026-04-25 05:06 36.31779 -121.61776 12217 ft 317 kts 302°
2026-04-25 05:06 36.32971 -121.63990 11807 ft 310 kts 303°
2026-04-25 05:06 36.34173 -121.66198 11442 ft 309 kts 303°
2026-04-25 05:06 36.35397 -121.68396 11039 ft 311 kts 305°
2026-04-25 05:07 36.36698 -121.70541 10650 ft 310 kts 307°
2026-04-25 05:07 36.38024 -121.72656 10260 ft 310 kts 307°
2026-04-25 05:07 36.39356 -121.74747 10092 ft 308 kts 308°
2026-04-25 05:07 36.40686 -121.76844 10034 ft 310 kts 307°
2026-04-25 05:08 36.42015 -121.78948 10021 ft 311 kts 307°
2026-04-25 05:08 36.43345 -121.81059 10013 ft 307 kts 308°
2026-04-25 05:08 36.44642 -121.83153 10002 ft 306 kts 307°
2026-04-25 05:08 36.45941 -121.85262 9744 ft 308 kts 307°
2026-04-25 05:09 36.47232 -121.87360 9420 ft 302 kts 307°
2026-04-25 05:09 36.48493 -121.89409 9095 ft 296 kts 307°
2026-04-25 05:09 36.49743 -121.91438 8699 ft 295 kts 307°
2026-04-25 05:09 36.50989 -121.93454 8310 ft 293 kts 307°
2026-04-25 05:10 36.52225 -121.95451 8094 ft 289 kts 307°
2026-04-25 05:10 36.53455 -121.97434 8042 ft 291 kts 307°
2026-04-25 05:10 36.54709 -121.99445 8025 ft 295 kts 307°
2026-04-25 05:10 36.55943 -122.01419 8000 ft 281 kts 307°
2026-04-25 05:11 36.57099 -122.03261 7986 ft 269 kts 307°
2026-04-25 05:11 36.58265 -122.05117 7993 ft 270 kts 307°
2026-04-25 05:11 36.59411 -122.06944 8007 ft 272 kts 308°
2026-04-25 05:12 36.61716 -122.10613 8007 ft 267 kts 307°
2026-04-25 05:12 36.62866 -122.12438 7999 ft 267 kts 307°
2026-04-25 05:12 36.63991 -122.14220 7993 ft 258 kts 307°
2026-04-25 05:12 36.65093 -122.15967 7997 ft 257 kts 308°
2026-04-25 05:13 36.66198 -122.17721 8011 ft 257 kts 307°
2026-04-25 05:13 36.67305 -122.19475 8007 ft 258 kts 307°
2026-04-25 05:13 36.68421 -122.21228 7998 ft 259 kts 308°
2026-04-25 05:13 36.69545 -122.22990 8004 ft 259 kts 308°
2026-04-25 05:14 36.70654 -122.24727 8003 ft 259 kts 308°
2026-04-25 05:14 36.71851 -122.26406 7992 ft 260 kts 322°
2026-04-25 05:14 36.73518 -122.27281 7754 ft 266 kts 352°
2026-04-25 05:15 36.76753 -122.25528 7033 ft 267 kts 56°
2026-04-25 05:15 36.77376 -122.23385 6683 ft 264 kts 88°
2026-04-25 05:15 36.77026 -122.21187 6332 ft 259 kts 120°
2026-04-25 05:15 36.75838 -122.19598 5958 ft 249 kts 153°
2026-04-25 05:16 36.74287 -122.18664 5612 ft 247 kts 157°
2026-04-25 05:16 36.72874 -122.17468 5235 ft 250 kts 131°
2026-04-25 05:16 36.71789 -122.15790 4874 ft 245 kts 142°
2026-04-25 05:16 36.70420 -122.14704 4460 ft 226 kts 153°
2026-04-25 05:17 36.69097 -122.13608 4129 ft 230 kts 142°
2026-04-25 05:17 36.68068 -122.12075 3846 ft 233 kts 118°
2026-04-25 05:17 36.67402 -122.10230 3612 ft 235 kts 112°
2026-04-25 05:17 36.66743 -122.08368 3363 ft 234 kts 113°
2026-04-25 05:18 36.66109 -122.06552 3183 ft 227 kts 113°
2026-04-25 05:18 36.65524 -122.04773 3118 ft 217 kts 112°
2026-04-25 05:18 36.64944 -122.03042 3065 ft 214 kts 113°
2026-04-25 05:18 36.64386 -122.01385 2884 ft 201 kts 113°
2026-04-25 05:19 36.63860 -121.99807 2619 ft 195 kts 113°
2026-04-25 05:19 36.63341 -121.98259 2389 ft 193 kts 113°
2026-04-25 05:19 36.62836 -121.96752 2169 ft 180 kts 113°
2026-04-25 05:19 36.62375 -121.95376 1949 ft 166 kts 113°
2026-04-25 05:20 36.61939 -121.94076 1728 ft 159 kts 113°
2026-04-25 05:20 36.61523 -121.92836 1512 ft 152 kts 113°
2026-04-25 05:20 36.61120 -121.91633 1303 ft 150 kts 112°
2026-04-25 05:20 36.60725 -121.90450 1082 ft 147 kts 113°
2026-04-25 05:21 36.60322 -121.89260 893 ft 150 kts 113°
2026-04-25 05:21 36.59896 -121.87987 704 ft 162 kts 112°
2026-04-25 05:21 36.59494 -121.86736 436 ft 149 kts 115°
2026-04-25 05:21 36.59098 -121.85599 241 ft 138 kts 113°
2026-04-25 05:22 36.58767 -121.84628 209 ft 87 kts 114°
2026-04-25 05:22 36.58604 -121.84179 207 ft 35 kts 116°
2026-04-25 05:22 36.58550 -121.84126 213 ft 2 kts 209°
2026-04-25 05:22 36.58528 -121.84164 208 ft 9 kts 256°
2026-04-25 05:23 36.58553 -121.84277 207 ft 17 kts 298°
2026-04-25 05:23 36.58533 -121.84386 211 ft 9 kts 264°
2026-04-25 05:23 36.58554 -121.84458 211 ft 10 kts 294°
2026-04-25 05:23 36.58589 -121.84553 211 ft 11 kts 284°
2026-04-25 05:24 36.58581 -121.84577 207 ft 5 kts 232°
2026-04-25 05:24 36.58568 -121.84588 211 ft 0 kts 204°